CZ-3B R/B (48809 NORAD) Tracking and Keplerian Element Data

This shows tracking and keplerian element data for the satellite.

Feedback or suggestion? Click here.




ElementValue
Catalog48809
NameCZ-3B R/B
Epoch Orbit66
Epoch Day180.95796056
Epoch Year2021
RAAN122.1468
Inclination28.6256
Eccentricity0.7213829
Argument of Perigee196.5113
Mean Anonmoly114.0392
Mean Motion2.40794097
Decay Rate0.0004389
L11 48809U 21047B 21180.95796056 .00043890 55131-6 14405-2 0 9993
L22 48809 28.6256 122.1468 7213829 196.5113 114.0392 2.40794097 666

Live tracking and technical data element details for CZ-3B R/B (NORAD 48809). CZ-3B R/B can be tracked NOW for your location showing map with azimuth and elevation plus other details from your city location.

Track the satellite on the map from your city or location and see movement details for azimuth, elevation, latitude, longitude, range, height, and movement on the map or in text.







IsCatalogInMostPopularTable: catalog: 48809, numindb: 14
Update: records affected: 1



GetName: 48809 CZ-3B R/B

Hit Count: updated at: Tue, 03 Aug 2021 23:02:17 GMT